Volver al catálogo

GAOFEN 14

ActivoCienciaSSO
NORAD 47231·PAYLOAD·🇨🇳 China

Lanzado Dec 6, 2020 desde Xichang Satellite Launch Center

Loading…

Próximos Pases (próximas 24 horas)

TLE

ActualizadoSource: Space-Track

Época: Sep 14, 2026, 13:02 UTC

1 47231U 20092A   26257.54373454  .00005040  00000-0  20033-3 0  9997
2 47231  97.4644 327.6477 0005231 182.9419 177.1789 15.25747337321453

Sigue GAOFEN 14 en tiempo real con AllMySat

Download on the App Store